Time,TemperatureF,DewpointF,PressureIn,WindDirection,WindDirectionDegrees,WindSpeedMPH,WindSpeedGustMPH,Humidity,HourlyPrecipIn,Conditions,Clouds,dailyrainin,SolarRadiationWatts/m^2,SoftwareType,DateUTC
2013-03-30 00:12:00,68.0,65.0,30.34,ENE,70,13.0,21.0,90,0.00,,,0.00,0.000000,,2013-03-30 10:12:00,
2013-03-30 00:23:00,68.0,65.0,30.34,ENE,70,13.0,21.0,90,0.00,,,0.00,0.000000,,2013-03-30 10:23:00,
2013-03-30 00:32:00,68.0,65.0,30.34,ENE,70,13.0,21.0,90,0.00,,,0.00,0.000000,,2013-03-30 10:32:00,
2013-03-30 00:42:00,68.0,65.0,30.34,ENE,70,13.0,21.0,90,0.00,,,0.00,0.000000,,2013-03-30 10:42:00,
2013-03-30 00:52:00,68.0,65.0,30.34,ENE,70,13.0,21.0,90,0.00,,,0.00,0.000000,,2013-03-30 10:52:00,
2013-03-30 01:12:00,68.0,66.0,30.31,ENE,64,15.0,23.0,92,0.00,,,0.00,0.000000,,2013-03-30 11:12:00,
2013-03-30 01:22:00,68.0,66.0,30.31,ENE,64,15.0,23.0,92,0.00,,,0.00,0.000000,,2013-03-30 11:22:00,
2013-03-30 01:32:00,68.0,66.0,30.31,ENE,64,15.0,23.0,92,0.00,,,0.00,0.000000,,2013-03-30 11:32:00,
2013-03-30 01:42:00,68.0,66.0,30.31,ENE,64,15.0,23.0,92,0.00,,,0.00,0.000000,,2013-03-30 11:42:00,
2013-03-30 01:52:00,68.0,66.0,30.31,ENE,64,15.0,23.0,92,0.00,,,0.00,0.000000,,2013-03-30 11:52:00,
2013-03-30 02:22:00,68.0,65.0,30.31,ENE,68,17.0,24.0,89,0.00,,,0.00,0.000000,,2013-03-30 12:22:00,
2013-03-30 02:32:00,68.0,65.0,30.31,ENE,68,17.0,24.0,89,0.00,,,0.00,0.000000,,2013-03-30 12:32:00,
2013-03-30 02:42:00,68.0,65.0,30.31,ENE,68,17.0,24.0,89,0.00,,,0.00,0.000000,,2013-03-30 12:42:00,
2013-03-30 02:52:00,68.0,65.0,30.31,ENE,68,17.0,24.0,89,0.00,,,0.00,0.000000,,2013-03-30 12:52:00,
2013-03-30 03:12:00,67.0,65.0,30.29,NNE,33,6.0,24.0,93,0.00,,,0.00,0.000000,,2013-03-30 13:12:00,
2013-03-30 03:22:00,67.0,65.0,30.29,NNE,33,6.0,24.0,93,0.00,,,0.00,0.000000,,2013-03-30 13:22:00,
2013-03-30 03:32:00,67.0,65.0,30.29,NNE,33,6.0,24.0,93,0.00,,,0.00,0.000000,,2013-03-30 13:32:00,
2013-03-30 03:42:00,67.0,65.0,30.29,NNE,33,6.0,24.0,93,0.00,,,0.00,0.000000,,2013-03-30 13:42:00,
2013-03-30 03:52:00,67.0,65.0,30.29,NNE,33,6.0,24.0,93,0.00,,,0.00,0.000000,,2013-03-30 13:52:00,
2013-03-30 04:22:00,66.0,63.0,30.29,NNE,25,4.0,11.0,90,0.00,,,0.00,0.000000,,2013-03-30 14:22:00,
2013-03-30 04:32:00,66.0,63.0,30.29,NNE,25,4.0,11.0,90,0.00,,,0.00,0.000000,,2013-03-30 14:32:00,
2013-03-30 04:42:00,66.0,63.0,30.29,NNE,25,4.0,11.0,90,0.00,,,0.00,0.000000,,2013-03-30 14:42:00,
2013-03-30 04:52:00,66.0,63.0,30.29,NNE,25,4.0,11.0,90,0.00,,,0.00,0.000000,,2013-03-30 14:52:00,
2013-03-30 05:12:00,67.0,63.0,30.28,NE,37,5.0,8.0,86,0.00,,,0.00,0.000000,,2013-03-30 15:12:00,
2013-03-30 05:22:00,67.0,63.0,30.28,NE,37,5.0,8.0,86,0.00,,,0.00,0.000000,,2013-03-30 15:22:00,
2013-03-30 05:33:00,67.0,63.0,30.28,NE,37,5.0,8.0,86,0.00,,,0.00,0.000000,,2013-03-30 15:33:00,
2013-03-30 05:42:00,67.0,63.0,30.28,NE,37,5.0,8.0,86,0.00,,,0.00,0.000000,,2013-03-30 15:42:00,
2013-03-30 05:52:00,67.0,63.0,30.28,NE,37,5.0,8.0,86,0.00,,,0.00,0.000000,,2013-03-30 15:52:00,
2013-03-30 06:13:00,68.0,64.0,30.29,NNE,22,8.0,12.0,88,0.00,,,0.00,0.000000,,2013-03-30 16:13:00,
2013-03-30 06:23:00,68.0,64.0,30.29,NNE,22,8.0,12.0,88,0.00,,,0.00,0.000000,,2013-03-30 16:23:00,
2013-03-30 06:32:00,68.0,64.0,30.29,NNE,22,8.0,12.0,88,0.00,,,0.00,0.000000,,2013-03-30 16:32:00,
2013-03-30 06:42:00,68.0,64.0,30.29,NNE,22,8.0,12.0,88,0.00,,,0.00,0.000000,,2013-03-30 16:42:00,
2013-03-30 06:52:00,68.0,64.0,30.29,NNE,22,8.0,12.0,88,0.00,,,0.00,0.000000,,2013-03-30 16:52:00,
2013-03-30 07:22:00,68.0,65.0,30.31,ENE,59,4.0,11.0,90,0.00,,,0.00,0.000000,,2013-03-30 17:22:00,
2013-03-30 07:32:00,68.0,65.0,30.31,ENE,59,4.0,11.0,90,0.00,,,0.00,0.000000,,2013-03-30 17:32:00,
2013-03-30 07:42:00,68.0,65.0,30.31,ENE,59,4.0,11.0,90,0.00,,,0.00,0.000000,,2013-03-30 17:42:00,
2013-03-30 07:52:00,68.0,65.0,30.31,ENE,59,4.0,11.0,90,0.00,,,0.00,0.000000,,2013-03-30 17:52:00,
2013-03-30 08:22:00,71.0,66.0,30.34,SSW,203,3.0,8.0,83,0.00,,,0.00,13.000000,,2013-03-30 18:22:00,
2013-03-30 08:32:00,71.0,66.0,30.34,SSW,203,3.0,8.0,83,0.00,,,0.00,13.000000,,2013-03-30 18:32:00,
2013-03-30 08:42:00,71.0,66.0,30.34,SSW,203,3.0,8.0,83,0.00,,,0.00,13.000000,,2013-03-30 18:42:00,
2013-03-30 08:52:00,71.0,66.0,30.34,SSW,203,3.0,8.0,83,0.00,,,0.00,13.000000,,2013-03-30 18:52:00,
2013-03-30 09:13:00,73.0,66.0,30.36,WSW,252,3.0,12.0,79,0.00,,,0.00,137.000000,,2013-03-30 19:13:00,
2013-03-30 09:22:00,73.0,66.0,30.36,WSW,252,3.0,12.0,79,0.00,,,0.00,137.000000,,2013-03-30 19:22:00,
2013-03-30 09:32:00,73.0,66.0,30.36,WSW,252,3.0,12.0,79,0.00,,,0.00,137.000000,,2013-03-30 19:32:00,
2013-03-30 09:42:00,73.0,66.0,30.36,WSW,252,3.0,12.0,79,0.00,,,0.00,137.000000,,2013-03-30 19:42:00,
2013-03-30 09:52:00,73.0,66.0,30.36,WSW,252,3.0,12.0,79,0.00,,,0.00,137.000000,,2013-03-30 19:52:00,
2013-03-30 10:22:00,72.0,66.0,30.37,East,100,6.0,11.0,81,0.00,,,0.00,314.000000,,2013-03-30 20:22:00,
2013-03-30 10:32:00,72.0,66.0,30.37,East,100,6.0,11.0,81,0.00,,,0.00,314.000000,,2013-03-30 20:32:00,
2013-03-30 10:42:00,72.0,66.0,30.37,East,100,6.0,11.0,81,0.00,,,0.00,314.000000,,2013-03-30 20:42:00,
2013-03-30 10:52:00,72.0,66.0,30.37,East,100,6.0,11.0,81,0.00,,,0.00,314.000000,,2013-03-30 20:52:00,
2013-03-30 11:12:00,72.0,64.0,30.35,NE,52,6.0,14.0,75,0.00,,,0.00,358.000000,,2013-03-30 21:12:00,
2013-03-30 11:22:00,72.0,64.0,30.35,NE,52,6.0,14.0,75,0.00,,,0.00,358.000000,,2013-03-30 21:22:00,
2013-03-30 11:33:00,72.0,64.0,30.35,NE,52,6.0,14.0,75,0.00,,,0.00,358.000000,,2013-03-30 21:33:00,
2013-03-30 11:43:00,72.0,64.0,30.35,NE,52,6.0,14.0,75,0.00,,,0.00,358.000000,,2013-03-30 21:43:00,
2013-03-30 11:52:00,72.0,64.0,30.35,NE,52,6.0,14.0,75,0.00,,,0.00,358.000000,,2013-03-30 21:52:00,
2013-03-30 12:12:00,72.0,67.0,30.34,SE,129,9.0,15.0,83,0.00,,,0.00,451.000000,,2013-03-30 22:12:00,
2013-03-30 12:23:00,72.0,67.0,30.34,SE,129,9.0,15.0,83,0.00,,,0.00,451.000000,,2013-03-30 22:23:00,
2013-03-30 12:32:00,72.0,67.0,30.34,SE,129,9.0,15.0,83,0.00,,,0.00,451.000000,,2013-03-30 22:32:00,
2013-03-30 12:43:00,72.0,67.0,30.34,SE,129,9.0,15.0,83,0.00,,,0.00,451.000000,,2013-03-30 22:43:00,
2013-03-30 12:52:00,72.0,67.0,30.34,SE,129,9.0,15.0,83,0.00,,,0.00,451.000000,,2013-03-30 22:52:00,
2013-03-30 13:12:00,70.0,65.0,30.33,SE,130,9.0,18.0,83,0.00,,,0.00,359.000000,,2013-03-30 23:12:00,
2013-03-30 13:22:00,70.0,65.0,30.33,SE,130,9.0,18.0,83,0.00,,,0.00,359.000000,,2013-03-30 23:22:00,
2013-03-30 13:32:00,70.0,65.0,30.33,SE,130,9.0,18.0,83,0.00,,,0.00,359.000000,,2013-03-30 23:32:00,
2013-03-30 13:42:00,70.0,65.0,30.33,SE,130,9.0,18.0,83,0.00,,,0.00,359.000000,,2013-03-30 23:42:00,
2013-03-30 13:52:00,70.0,65.0,30.33,SE,130,9.0,18.0,83,0.00,,,0.00,359.000000,,2013-03-30 23:52:00,
2013-03-30 14:12:00,69.0,67.0,30.30,SE,134,7.0,14.0,92,0.00,,,0.00,214.000000,,2013-03-31 00:12:00,
2013-03-30 14:22:00,69.0,67.0,30.30,SE,134,7.0,14.0,92,0.00,,,0.00,214.000000,,2013-03-31 00:22:00,
2013-03-30 14:32:00,69.0,67.0,30.30,SE,134,7.0,14.0,92,0.00,,,0.00,214.000000,,2013-03-31 00:32:00,
2013-03-30 14:42:00,69.0,67.0,30.30,SE,134,7.0,14.0,92,0.00,,,0.00,214.000000,,2013-03-31 00:42:00,
2013-03-30 14:52:00,69.0,67.0,30.30,SE,134,7.0,14.0,92,0.00,,,0.00,214.000000,,2013-03-31 00:52:00,
2013-03-30 15:22:00,69.0,67.0,30.28,ESE,118,4.0,9.0,93,0.00,,,0.00,130.000000,,2013-03-31 01:22:00,
2013-03-30 15:32:00,69.0,67.0,30.28,ESE,118,4.0,9.0,93,0.00,,,0.00,130.000000,,2013-03-31 01:32:00,
2013-03-30 15:42:00,69.0,67.0,30.28,ESE,118,4.0,9.0,93,0.00,,,0.00,130.000000,,2013-03-31 01:42:00,
2013-03-30 15:52:00,69.0,67.0,30.28,ESE,118,4.0,9.0,93,0.00,,,0.00,130.000000,,2013-03-31 01:52:00,
2013-03-30 16:12:00,70.0,68.0,30.27,ESE,112,6.0,9.0,93,0.00,,,0.00,179.000000,,2013-03-31 02:12:00,
2013-03-30 16:22:00,70.0,68.0,30.27,ESE,112,6.0,9.0,93,0.00,,,0.00,179.000000,,2013-03-31 02:22:00,
2013-03-30 16:32:00,70.0,68.0,30.27,ESE,112,6.0,9.0,93,0.00,,,0.00,179.000000,,2013-03-31 02:32:00,
2013-03-30 16:42:00,70.0,68.0,30.27,ESE,112,6.0,9.0,93,0.00,,,0.00,179.000000,,2013-03-31 02:42:00,
2013-03-30 16:51:00,70.0,68.0,30.27,ESE,112,6.0,9.0,93,0.00,,,0.00,179.000000,,2013-03-31 02:51:00,
2013-03-30 16:53:00,68.0,65.0,30.27,NE,47,10.0,16.0,91,0.00,,,0.00,223.000000,,2013-03-31 02:53:00,
2013-03-30 17:12:00,68.0,65.0,30.27,NE,47,10.0,16.0,91,0.00,,,0.00,223.000000,,2013-03-31 03:12:00,
2013-03-30 17:22:00,68.0,65.0,30.27,NE,47,10.0,16.0,91,0.00,,,0.00,223.000000,,2013-03-31 03:22:00,
2013-03-30 17:32:00,68.0,65.0,30.27,NE,47,10.0,16.0,91,0.00,,,0.00,223.000000,,2013-03-31 03:32:00,
2013-03-30 17:43:00,68.0,65.0,30.27,NE,47,10.0,16.0,91,0.00,,,0.00,223.000000,,2013-03-31 03:43:00,
2013-03-30 18:22:00,70.0,67.0,30.27,NE,49,9.0,16.0,89,0.00,,,0.00,141.000000,,2013-03-31 04:22:00,
2013-03-30 18:32:00,70.0,67.0,30.27,NE,49,9.0,16.0,89,0.00,,,0.00,141.000000,,2013-03-31 04:32:00,
2013-03-30 18:42:00,70.0,67.0,30.27,NE,49,9.0,16.0,89,0.00,,,0.00,141.000000,,2013-03-31 04:42:00,
2013-03-30 18:52:00,70.0,67.0,30.27,NE,49,9.0,16.0,89,0.00,,,0.00,141.000000,,2013-03-31 04:52:00,
2013-03-30 19:12:00,66.0,64.0,30.28,NE,37,15.0,26.0,92,0.00,,,0.00,194.000000,,2013-03-31 05:12:00,
2013-03-30 19:22:00,66.0,64.0,30.28,NE,37,15.0,26.0,92,0.00,,,0.00,194.000000,,2013-03-31 05:22:00,
2013-03-30 19:32:00,66.0,64.0,30.28,NE,37,15.0,26.0,92,0.00,,,0.00,194.000000,,2013-03-31 05:32:00,
2013-03-30 19:42:00,66.0,64.0,30.28,NE,37,15.0,26.0,92,0.00,,,0.00,194.000000,,2013-03-31 05:42:00,
2013-03-30 19:52:00,66.0,64.0,30.28,NE,37,15.0,26.0,92,0.00,,,0.00,194.000000,,2013-03-31 05:52:00,
2013-03-30 20:22:00,68.0,64.0,30.30,NE,40,12.0,19.0,86,0.00,,,0.00,53.000000,,2013-03-31 06:22:00,
2013-03-30 20:32:00,68.0,64.0,30.30,NE,40,12.0,19.0,86,0.00,,,0.00,53.000000,,2013-03-31 06:32:00,
2013-03-30 20:42:00,68.0,64.0,30.30,NE,40,12.0,19.0,86,0.00,,,0.00,53.000000,,2013-03-31 06:42:00,
2013-03-30 20:52:00,68.0,64.0,30.30,NE,40,12.0,19.0,86,0.00,,,0.00,53.000000,,2013-03-31 06:52:00,
2013-03-30 21:12:00,66.0,61.0,30.31,NNE,25,14.0,20.0,85,0.00,,,0.00,0.000000,,2013-03-31 07:12:00,
2013-03-30 21:22:00,66.0,61.0,30.31,NNE,25,14.0,20.0,85,0.00,,,0.00,0.000000,,2013-03-31 07:22:00,
2013-03-30 21:32:00,66.0,61.0,30.31,NNE,25,14.0,20.0,85,0.00,,,0.00,0.000000,,2013-03-31 07:32:00,
2013-03-30 21:42:00,66.0,61.0,30.31,NNE,25,14.0,20.0,85,0.00,,,0.00,0.000000,,2013-03-31 07:42:00,
2013-03-30 21:52:00,66.0,61.0,30.31,NNE,25,14.0,20.0,85,0.00,,,0.00,0.000000,,2013-03-31 07:52:00,
2013-03-30 22:22:00,67.0,64.0,30.31,NNE,18,15.0,22.0,90,0.00,,,0.00,0.000000,,2013-03-31 08:22:00,
2013-03-30 22:32:00,67.0,64.0,30.31,NNE,18,15.0,22.0,90,0.00,,,0.00,0.000000,,2013-03-31 08:32:00,
2013-03-30 22:42:00,67.0,64.0,30.31,NNE,18,15.0,22.0,90,0.00,,,0.00,0.000000,,2013-03-31 08:42:00,
2013-03-30 22:52:00,67.0,64.0,30.31,NNE,18,15.0,22.0,90,0.00,,,0.00,0.000000,,2013-03-31 08:52:00,
2013-03-30 23:12:00,67.0,64.0,30.31,NNE,18,15.0,23.0,91,0.00,,,0.00,0.000000,,2013-03-31 09:12:00,
2013-03-30 23:22:00,67.0,64.0,30.31,NNE,18,15.0,23.0,91,0.00,,,0.00,0.000000,,2013-03-31 09:22:00,
2013-03-30 23:32:00,67.0,64.0,30.31,NNE,18,15.0,23.0,91,0.00,,,0.00,0.000000,,2013-03-31 09:32:00,
2013-03-30 23:42:00,67.0,64.0,30.31,NNE,18,15.0,23.0,91,0.00,,,0.00,0.000000,,2013-03-31 09:42:00,
2013-03-30 23:52:00,67.0,64.0,30.31,NNE,18,15.0,23.0,91,0.00,,,0.00,0.000000,,2013-03-31 09:52:00,